GFSFLT2_850_spd_336.txt.gz
Wind_Speed
8 6 8 8 8 4 11 13 8 1 4 8 3 9 11 16 20 22 24 25 26 25 23 22 22 22 20 18 17 15 14 15
10 8 6 11 3 6 5 4 5 2 4 6 5 7 13 17 18 20 22 24 25 26 24 22 22 22 21 20 20 17 19 19
12 14 14 7 10 10 9 7 7 7 5 7 3 6 14 18 20 22 25 26 26 25 24 22 22 23 22 21 23 23 23 20
15 16 13 21 15 14 9 8 5 5 6 8 3 9 15 21 19 21 24 27 26 26 26 23 23 24 23 23 21 23 24 22
16 12 7 13 12 13 13 4 8 8 1 8 6 11 16 18 17 20 23 26 26 26 28 26 24 24 24 23 22 22 23 22
14 16 15 17 16 17 15 10 8 8 11 2 5 12 16 16 18 22 25 28 28 27 28 27 25 25 24 23 22 22 21 20
17 16 13 10 18 17 16 17 14 10 7 3 1 9 19 20 21 22 24 27 28 28 28 27 26 25 25 23 23 23 21 19
14 18 17 18 19 20 18 19 16 16 14 11 5 8 21 21 23 25 26 29 29 29 29 28 28 27 25 24 22 22 21 20
14 13 14 20 20 20 20 16 16 14 15 3 5 12 19 25 25 28 30 30 30 32 31 30 29 28 28 26 23 22 20 20
10 7 19 12 15 19 21 16 19 17 16 6 9 10 21 28 27 30 31 32 32 31 29 28 27 27 26 25 25 23 23 22
10 13 14 10 9 12 13 20 20 18 18 19 11 7 8 20 28 30 33 33 32 33 31 30 29 28 28 27 26 25 25 25
9 14 17 12 10 2 9 13 2 13 21 11 13 10 8 20 28 27 31 32 29 30 30 30 29 30 30 29 28 27 27 23
14 14 11 11 3 4 14 3 5 7 5 15 12 15 8 4 21 28 29 28 29 31 35 33 34 33 32 30 30 28 27 24
14 18 22 3 5 12 4 6 4 4 6 6 4 7 6 6 7 20 26 27 29 31 36 38 38 36 34 32 31 29 27 25
12 10 6 2 5 8 5 6 6 5 6 7 7 8 8 8 11 12 23 29 29 32 37 42 41 39 37 32 31 30 27 27
7 11 8 10 10 9 7 6 2 5 8 10 10 10 10 9 6 13 19 26 29 31 33 41 43 40 38 34 32 30 29 30
12 10 2 10 12 5 3 6 4 7 9 10 13 14 13 13 9 12 18 23 27 32 35 44 46 42 39 37 35 31 31 31
10 17 16 4 13 4 6 7 7 11 13 12 14 15 16 14 12 9 17 22 26 28 30 35 42 45 42 38 35 33 33 33
23 23 14 9 11 14 17 16 11 12 14 17 15 16 16 16 13 9 15 21 25 31 30 36 45 44 44 39 37 35 33 32

GFSFLT2_850_spd_339.txt.gz
Wind_Speed
15 18 18 12 10 13 21 19 4 4 19 10 12 8 13 19 24 26 26 27 25 24 23 23 23 22 21 18 16 13 13 16
13 10 11 17 2 6 7 9 4 10 9 4 7 13 13 16 26 28 27 25 27 25 24 23 23 23 22 19 17 16 15 16
15 13 16 14 17 15 15 17 8 9 6 18 16 8 17 17 18 24 25 27 27 26 24 24 23 23 23 22 20 17 19 17
20 18 18 21 18 20 13 10 7 16 4 12 3 11 17 21 17 17 18 22 26 26 26 25 25 25 24 23 23 20 23 22
18 18 17 13 20 21 18 6 6 8 9 16 6 10 14 18 18 19 19 22 25 26 27 26 25 25 25 24 26 25 28 23
16 17 16 18 20 22 19 10 9 24 7 24 10 8 13 19 18 19 20 23 25 26 27 26 25 25 25 24 26 24 20 23
19 21 17 13 16 18 22 14 17 2 7 5 8 13 11 17 19 19 21 24 25 26 28 27 26 26 25 24 24 23 24 25
20 21 19 16 17 16 21 16 15 16 11 7 4 3 18 17 20 21 22 23 25 26 27 28 27 28 27 25 24 24 23 18
16 15 15 19 20 17 17 17 15 17 13 6 1 5 14 21 21 21 21 25 26 27 28 29 28 29 28 27 27 28 27 23
11 16 21 13 15 19 19 19 18 18 11 8 5 5 13 20 24 22 23 26 27 28 27 28 27 27 26 25 26 27 27 24
13 13 15 9 16 15 15 15 21 17 15 13 10 9 5 16 23 27 26 28 29 28 28 29 30 30 30 29 29 27 27 28
9 16 19 13 16 12 7 14 15 19 18 14 16 8 9 17 23 28 27 29 28 28 28 28 29 29 32 32 32 29 29 30
15 14 13 11 13 4 12 2 7 4 6 8 15 12 5 5 14 27 27 29 29 29 31 33 34 34 35 34 33 31 28 29
15 19 22 18 11 11 5 5 4 5 7 8 12 9 6 8 4 20 25 29 30 30 31 36 38 39 38 36 32 31 32 28
17 14 21 13 19 6 5 7 7 6 7 8 7 6 6 7 8 10 27 27 29 30 32 38 42 43 38 34 34 33 33 30
11 13 1 7 5 5 6 5 4 5 7 6 6 7 6 7 7 8 18 24 27 29 34 36 40 43 37 37 36 35 32 32
11 19 9 12 7 6 3 4 3 3 4 6 7 7 8 8 9 8 4 21 28 30 34 39 42 43 36 40 39 36 30 33
9 18 14 10 11 13 4 2 2 3 3 5 6 7 9 10 10 10 8 8 25 30 34 36 36 35 38 40 41 36 31 29
19 24 24 13 7 9 10 11 11 11 9 9 9 8 8 8 9 13 10 12 21 29 31 36 39 39 41 42 43 40 35 32

GFSFLT2_850_spd_342.txt.gz
Wind_Speed
30 12 14 13 15 6 10 12 12 5 2 5 23 12 7 22 25 33 26 20 29 34 33 30 25 25 18 17 17 16 15 16
5 10 18 18 8 3 6 6 7 6 5 5 22 17 9 17 23 27 26 33 28 27 24 25 22 24 21 15 18 17 15 16
13 14 15 9 11 10 17 4 10 1 4 10 25 19 14 16 24 28 29 32 30 27 26 24 24 25 25 18 19 13 16 18
21 20 15 13 18 16 13 13 1 1 1 7 24 25 29 15 24 31 34 30 35 30 30 26 26 26 25 21 21 16 16 18
20 16 16 15 15 17 20 5 4 2 4 7 26 23 23 20 15 26 32 27 35 30 28 26 26 27 27 26 22 20 23 22
16 19 15 14 17 14 18 13 11 3 5 18 25 19 8 18 24 21 17 21 32 27 28 26 28 29 28 27 26 22 23 21
18 21 23 22 20 16 17 20 10 9 16 20 25 22 27 24 22 22 20 22 25 26 30 28 28 29 28 24 28 28 24 23
21 22 22 21 20 13 15 15 17 16 8 16 45 51 18 25 23 22 20 24 24 27 33 30 29 29 27 27 25 23 19 17
17 16 18 20 21 16 19 14 17 14 21 21 32 7 19 22 24 22 21 24 25 27 34 31 30 30 29 26 25 24 27 25
14 18 22 15 16 16 19 19 16 12 9 4 10 9 11 26 30 28 24 26 26 29 33 30 28 27 27 26 24 25 26 24
12 15 14 18 22 16 15 15 17 18 10 1 10 10 21 37 32 33 29 29 28 28 32 32 30 29 29 30 30 28 27 25
11 14 18 13 14 8 13 11 11 13 17 15 45 9 5 10 21 32 30 30 32 29 31 31 32 31 32 32 29 31 30 27
14 12 12 13 11 12 8 1 13 17 23 21 11 14 11 8 2 31 34 33 32 31 34 33 34 34 34 33 31 29 28 31
13 16 19 17 15 5 4 11 9 13 16 13 17 16 18 21 5 7 7 37 35 32 35 36 36 36 36 38 34 29 30 31
14 11 13 18 18 6 11 16 12 12 13 11 13 12 12 12 15 8 14 37 37 35 37 39 38 40 39 37 36 35 32 33
11 16 15 8 24 11 11 12 11 10 10 10 9 10 10 12 12 4 6 2 28 35 39 41 41 39 37 38 37 36 35 34
15 14 9 7 9 10 8 8 8 8 9 10 9 11 11 12 13 11 10 1 3 35 39 39 41 42 38 38 39 38 39 35
6 13 9 11 2 10 8 6 5 3 4 6 8 9 10 11 13 12 12 8 2 19 35 36 41 43 39 39 40 41 41 39
22 19 17 13 11 1 9 5 3 3 4 3 5 6 8 9 11 13 12 9 2 6 28 32 38 42 39 39 42 44 43 39

GFSFLT2_850_spd_345.txt.gz
Wind_Speed
7 8 3 9 8 9 1 6 3 1 5 12 13 18 22 28 36 29 31 39 37 38 41 39 36 27 17 13 15 16 15 15
4 10 23 7 2 5 4 3 5 5 4 4 16 19 12 23 29 42 37 39 43 46 42 38 34 26 18 13 15 14 14 17
9 6 11 8 2 4 7 6 6 5 5 9 16 12 3 8 11 41 41 49 47 40 38 36 33 27 21 16 13 15 13 16
14 13 14 8 9 7 5 6 2 3 5 8 8 7 18 14 21 22 48 43 42 39 41 41 33 29 23 19 13 12 14 17
11 8 6 7 12 8 6 3 6 6 6 7 6 9 18 10 23 21 33 41 44 41 44 39 34 30 26 23 18 13 17 20
9 9 4 5 7 10 8 2 4 3 4 7 4 5 14 33 14 45 44 41 41 40 40 38 35 34 29 26 19 19 23 24
7 7 9 11 10 10 9 8 7 9 9 7 6 18 14 30 11 35 37 40 44 40 42 38 38 35 31 29 25 23 24 23
6 9 12 15 12 11 6 7 9 14 4 4 8 24 7 2 12 34 37 44 43 42 42 40 38 36 34 32 30 23 25 21
5 7 10 11 7 7 9 7 16 8 7 7 4 11 10 35 18 35 37 41 39 45 42 40 38 36 36 33 27 25 23 20
4 3 8 7 10 11 9 9 5 20 19 18 23 29 34 17 27 17 34 33 37 43 42 38 37 36 34 31 27 24 26 22
5 5 8 7 11 13 7 10 9 21 20 19 18 19 33 22 12 16 34 39 36 38 39 37 37 34 32 32 28 25 26 24
4 1 5 8 11 14 9 2 19 15 21 17 14 4 8 12 39 33 22 38 37 38 39 36 35 33 32 32 31 30 29 25
4 4 5 7 9 11 7 2 18 21 20 17 5 9 20 5 29 34 23 40 37 39 40 35 33 31 29 33 33 31 30 26
3 3 7 13 9 4 5 22 24 22 27 28 21 26 28 8 18 25 24 31 34 39 40 36 33 32 31 32 32 30 29 27
8 6 8 29 3 14 21 25 21 21 24 24 23 22 27 26 27 32 21 20 14 29 40 36 33 29 31 32 30 31 30 31
2 8 3 15 12 22 24 23 19 19 19 21 22 16 20 23 14 17 19 29 41 23 20 42 35 34 28 28 30 32 30 30
4 15 13 16 14 17 20 18 17 17 17 18 19 18 15 16 16 10 5 11 32 33 28 44 43 40 36 33 32 30 31 31
2 13 7 16 18 5 14 15 12 11 11 12 14 15 13 11 12 10 5 1 7 32 42 51 51 46 42 38 36 33 33 34
8 20 21 19 15 15 10 11 5 5 7 6 5 7 9 9 9 13 12 6 6 10 27 43 41 51 45 42 41 38 35 35